N7DTY Weather Reports


Display with metric or nautical units.
time (UTC)temp
F
wind
direction
speed
MPH
gust
MPH
rain 1hr
in
rain 24hr
in
rain mn
in
humidity
%
barometer
mb
20260509021522 56 161 2.0 5.0 0.00 0.00 0.00 72 1021.6
20260509020022 56 182 1.0 4.0 0.00 0.00 0.00 72 1021.7
20260509014534 56 163 1.0 6.0 0.00 0.00 0.00 71 1021.7
20260509013023 56 165 1.0 9.0 0.00 0.00 0.00 70 1021.6
20260509011520 56 164 1.0 7.0 0.00 0.00 0.00 71 1021.6
20260509010019 56 188 3.0 8.0 0.00 0.00 0.00 69 1021.5
20260509004519 56 193 3.0 7.0 0.00 0.00 0.00 70 1021.5
20260509003019 56 178 2.0 9.0 0.00 0.00 0.00 69 1021.5
20260509001520 57 181 3.0 9.0 0.00 0.00 0.00 68 1021.5
20260509000017 56 207 3.0 7.0 0.00 0.00 0.00 70 1021.5
20260508234517 57 163 4.0 10.0 0.00 0.00 0.00 69 1021.4
20260508233016 57 199 3.0 9.0 0.00 0.00 0.00 70 1021.4
20260508231515 57 172 2.0 8.0 0.00 0.00 0.00 69 1021.4
20260508230014 57 190 3.0 9.0 0.00 0.00 0.00 68 1021.4
20260508224513 57 59 3.0 8.0 0.00 0.00 0.00 69 1021.3
20260508223013 57 209 4.0 14.0 0.00 0.00 0.00 70 1021.3
20260508221511 58 197 4.0 10.0 0.00 0.00 0.00 68 1021.3
20260508220032 57 179 4.0 9.0 0.00 0.00 0.00 69 1021.2
20260508214510 56 192 4.0 10.0 0.00 0.00 0.00 70 1021.2
20260508213010 57 181 4.0 10.0 0.00 0.00 0.00 70 1021.1
20260508211508 56 174 4.0 8.0 0.00 0.00 0.00 68 1021.0
20260508210006 57 183 4.0 11.0 0.00 0.00 0.00 67 1020.8
20260508204505 57 172 3.0 10.0 0.00 0.00 0.00 68 1020.7
20260508203003 57 175 5.0 12.0 0.00 0.00 0.00 70 1020.6
20260508194555 56 188 4.0 11.0 0.00 0.00 0.00 74 1020.4
20260508193103 56 182 4.0 13.0 0.00 0.00 0.00 74 1020.2
20260508191549 54 174 3.0 8.0 0.00 0.00 0.00 77 1020.1
20260508190101 53 170 4.0 12.0 0.00 0.00 0.00 76 1020.0
20260508184551 53 160 4.0 16.0 0.00 0.00 0.00 76 1020.0
20260508183046 53 171 5.0 9.0 0.00 0.00 0.00 77 1019.8
20260508181603 54 157 3.0 11.0 0.00 0.00 0.00 79 1019.5
20260508180048 54 184 3.0 12.0 0.00 0.00 0.00 79 1019.4
20260508174549 54 195 3.0 13.0 0.00 0.00 0.00 79 1019.4
20260508173039 54 186 5.0 15.0 0.00 0.00 0.00 78 1019.1
20260508171537 54 178 3.0 8.0 0.00 0.00 0.00 79 1018.8
20260508170033 54 184 4.0 9.0 0.00 0.00 0.00 78 1018.6
20260508164531 54 167 3.0 8.0 0.00 0.00 0.00 79 1018.4
20260508163037 53 159 3.0 8.0 0.00 0.00 0.00 80 1018.4
20260508161535 53 147 2.0 10.0 0.00 0.00 0.00 81 1018.1
20260508160030 53 202 5.0 10.0 0.00 0.00 0.00 79 1018.1
20260508154525 53 140 4.0 8.0 0.00 0.00 0.00 80 1017.9
20260508153025 53 151 2.0 8.0 0.00 0.00 0.00 82 1017.7
20260508151524 52 180 4.0 10.0 0.00 0.00 0.00 82 1017.9
20260508150024 52 173 2.0 11.0 0.00 0.00 0.00 82 1017.8
20260508144517 53 171 4.0 9.0 0.00 0.00 0.00 82 1017.5
20260508143023 52 221 2.0 11.0 0.00 0.00 0.00 85 1017.2
20260508141512 52 196 2.0 8.0 0.00 0.00 0.00 87 1017.0
20260508140016 52 167 3.0 7.0 0.00 0.00 0.00 85 1016.7
20260508134509 52 176 1.0 6.0 0.00 0.00 0.00 87 1016.7
20260508133003 52 214 1.0 13.0 0.00 0.00 0.00 86 1016.5
20260508131559 52 200 3.0 14.0 0.00 0.00 0.00 88 1016.5
20260508130058 52 207 2.0 7.0 0.00 0.00 0.00 88 1016.3
20260508124556 52 193 2.0 7.0 0.00 0.00 0.00 88 1016.4
20260508123106 51 184 2.0 4.0 0.00 0.00 0.00 88 1016.3
20260508121557 51 126 1.0 5.0 0.00 0.00 0.00 90 1016.2
20260508120053 51 229 0.0 2.0 0.00 0.00 0.00 89 1016.1
20260508114554 51 248 0.0 1.0 0.00 0.00 0.00 89 1015.9
20260508113153 51 248 0.0 2.0 0.00 0.00 0.00 89 1016.0
20260508111550 51 188 0.0 4.0 0.00 0.00 0.00 90 1016.0
20260508110049 51 190 1.0 3.0 0.00 0.00 0.00 90 1016.0
20260508104548 51 190 0.0 1.0 0.00 0.00 0.00 89 1015.9
20260508103050 51 190 0.0 2.0 0.00 0.00 0.00 89 1015.9
20260508101549 51 199 0.0 2.0 0.00 0.00 0.00 88 1015.8
20260508100047 51 201 0.0 2.0 0.00 0.00 0.00 87 1015.8
20260508094606 51 201 0.0 0.0 0.00 0.00 0.00 87 1015.7
20260508093046 51 201 0.0 0.0 0.00 0.00 0.00 86 1015.7
20260508091546 51 201 0.0 2.0 0.00 0.00 0.00 86 1015.7
20260508090049 51 180 0.0 1.0 0.00 0.00 0.00 86 1015.7
20260508084543 51 180 0.0 0.0 0.00 0.00 0.00 86 1015.8
20260508083042 51 180 0.0 0.0 0.00 0.00 0.00 85 1015.8
20260508081559 52 180 0.0 0.0 0.00 0.00 0.00 84 1016.0
20260508080036 52 180 0.0 0.0 0.00 0.00 0.00 82 1016.0
20260508074535 52 180 0.0 0.0 0.00 0.00 0.00 82 1016.1
20260508073036 53 180 0.0 0.0 0.00 0.00 0.00 82 1016.2
20260508071541 53 180 0.0 3.0 0.00 0.00 0.00 81 1016.2
20260508070028 54 117 2.0 9.0 0.00 0.00 0.00 80 1016.3
20260508064530 54 163 2.0 6.0 0.00 0.00 0.00 81 1016.3
20260508063043 54 180 2.0 4.0 0.00 0.00 0.00 81 1016.3
20260508061526 54 198 0.0 5.0 0.00 0.00 0.00 83 1016.2
20260508060029 54 209 1.0 4.0 0.00 0.00 0.00 81 1016.2
20260508054525 53 175 0.0 2.0 0.00 0.00 0.00 82 1016.2
20260508053025 54 173 0.0 5.0 0.00 0.00 0.00 81 1016.2
20260508051523 54 178 0.0 4.0 0.00 0.00 0.00 80 1016.2
20260508050022 55 130 2.0 8.0 0.00 0.00 0.00 80 1016.3
20260508044526 55 204 2.0 5.0 0.00 0.00 0.00 79 1016.5
20260508043022 55 211 2.0 7.0 0.00 0.00 0.00 78 1016.6
20260508041519 55 166 3.0 5.0 0.00 0.00 0.00 77 1016.6
20260508040019 55 184 1.0 5.0 0.00 0.00 0.00 78 1016.7
20260508034518 55 144 0.0 5.0 0.00 0.00 0.00 78 1016.6
20260508033018 56 184 1.0 5.0 0.00 0.00 0.00 77 1016.5
20260508031516 57 170 1.0 5.0 0.00 0.00 0.00 76 1016.5
20260508030015 57 170 0.0 4.0 0.00 0.00 0.00 77 1016.7
20260508024530 57 195 1.0 4.0 0.00 0.00 0.00 76 1016.7
20260508023022 58 163 1.0 5.0 0.00 0.00 0.00 77 1016.6